Location: South Range
(44.4886°N, 65.7879°W)
Time: 02:32:38
(UTC-03:00)

Iridium 56 - Visible Passes

Search period start: 18 April 2014 00:00
Search period end: 28 April 2014 00:00
Orbit: 776 x 779 km, 86.4° (Epoch: 17 April)

Date Brightness Start Highest point End Pass type
(mag) Time Alt. Az. Time Alt. Az. Time Alt. Az.
18 Apr 8.4 05:43:43 10° NNE 05:47:44 22° ENE 05:51:45 10° SE visible
19 Apr 8.8 05:11:36 10° NE 05:13:49 13° ENE 05:16:02 10° E visible
21 Apr 7.7 05:43:25 10° NNE 05:48:01 31° ENE 05:52:35 10° SE visible
22 Apr 8.5 05:10:41 10° NNE 05:14:11 18° ENE 05:17:40 10° ESE visible
24 Apr 7.0 05:43:16 10° N 05:48:15 43° E 05:53:11 10° SSE visible
25 Apr 8.0 05:10:14 10° NNE 05:14:30 25° ENE 05:18:44 10° SE visible
26 Apr 8.5 04:37:50 10° NE 04:40:36 14° ENE 04:43:22 10° ESE visible
27 Apr 6.2 05:43:14 10° N 05:48:25 62° E 05:53:33 10° SSE visible
